[[{"header":{"parameterUnit":"m.s-1","parameterCategory":1,"la1":30.2991,"la2":30.254,"lo1":-89.0895,"lo2":-89.0444,"dy":0.0017,"dx":0.0017,"nx":28,"ny":28,"refTime":"2025-11-04T03:00:00:Z","depth":0,"parameterNumber":2,"parameterNumberName":"U-component_of_WINDS"},"data":[0,0,0,0,0,0,0,0,0,0,0,0,0,0,0,0,0,0,0,0,0,0,0,0,0,0,0,0,0,0,0,0,0,0,0,0,0,0,0,0,0,0,0,0,0,0,0,0,0,0,0,0,0,0,0,0,0,0,-2.3023,-2.3024,0,-2.3065,-2.3066,-2.3066,-2.2949,-2.2945,-2.2941,-2.2938,-2.2984,-2.2988,-2.2993,0,0,0,0,0,0,0,0,0,0,0,0,0,-2.2843,-2.2847,-2.3023,-2.3024,-2.3024,-2.3065,-2.3066,-2.3066,-2.2949,-2.2945,-2.2941,-2.2936,-2.2982,-2.2988,-2.2993,0,0,0,0,0,0,0,0,0,0,0,0,0,-2.2907,-2.2848,-2.3023,-2.2971,-2.2966,-2.3065,-2.3066,-2.3067,-2.295,-2.2945,-2.2939,-2.2934,-2.298,-2.2987,-2.2994,-2.3146,0,0,-2.3015,-2.3018,0,0,0,0,0,0,0,0,-2.2903,-2.2913,-2.2978,-2.2975,-2.297,-2.2996,-2.3019,-2.3093,-2.2952,-2.2957,-2.2938,-2.2932,-2.2993,-2.2998,-2.3018,-2.3148,-2.315,-2.3016,-2.302,-2.3023,-2.3025,0,0,0,0,0,0,0,-2.2899,-2.2911,-2.304,-2.2979,-2.2974,-2.2945,-2.2949,-2.3032,-2.3005,-2.2956,-2.2947,-2.2954,-2.2989,-2.3012,-2.3018,-2.3151,-2.3016,-2.3022,-2.3026,-2.3029,-2.3407,-2.3413,0,0,0,0,0,0,-2.2901,-2.2908,-2.3039,-2.3041,-2.2922,-2.2953,-2.2957,-2.2993,-2.3003,-2.3,-2.2958,-2.2948,-2.3003,-2.301,-2.3019,-2.3199,-2.3023,-2.3029,-2.3033,-2.3402,-2.3409,-2.3415,0,0,0,0,0,0,-2.2898,-2.2914,-2.3037,-2.2972,-2.2986,-2.2962,-2.3004,-2.2997,-2.3019,-2.3005,-2.3,-2.2986,-2.2999,-2.301,-2.3115,-2.3198,-2.3033,-2.3039,-2.3395,-2.3404,-2.3412,-2.3558,0,0,0,0,0,0,-2.2893,-2.2913,-2.2971,-2.2974,-2.299,-2.3132,-2.3009,-2.3002,-2.3031,-2.3018,-2.303,-2.3027,-2.2995,-2.3106,-2.3122,-2.3205,-2.3044,-2.3387,-2.3399,-2.3409,-2.3546,-2.3571,-2.3592,0,0,0,0,0,-2.2887,-2.3011,-2.2974,-2.2991,-2.3061,-2.3137,-2.3146,-2.3106,-2.3038,-2.3096,-2.3087,-2.3027,-2.3186,-2.3117,-2.3135,-2.3221,-2.3382,-2.3395,-2.3408,-2.3535,-2.3566,-2.3592,0,0,0,0,0,0,-2.3019,-2.301,-2.297,-2.3099,-2.3119,-2.3117,-2.3189,-2.314,-2.3181,-2.3167,-2.3116,-2.312,-2.3235,-2.3238,-2.3162,-2.3369,-2.3272,-2.329,-2.3363,-2.3392,-2.3415,-2.3413,-2.305,0,0,0,0,0,-2.3063,-2.3125,-2.3114,-2.3229,-2.3241,-2.3214,-2.3245,-2.3212,-2.3232,-2.3241,-2.3239,-2.3262,-2.3316,-2.3354,-2.3404,-2.3545,-2.3546,-2.3613,-2.3636,-2.3655,-2.3672,-2.3747,-2.3776,-2.3459,-2.3459,-2.3458,0,0,-2.3155,-2.3158,-2.32,-2.3255,-2.3268,-2.3334,-2.3222,-2.3297,-2.3345,-2.3252,-2.3352,-2.3352,-2.3373,-2.3497,-2.3552,-2.3503,-2.3759,-2.3672,-2.3687,-2.3693,-2.3763,-2.3793,-2.382,-2.3468,-2.3466,-2.3465,0,0,-2.3356,-2.3364,-2.3461,-2.3475,-2.3494,-2.3474,-2.3498,-2.3503,-2.3499,-2.3597,-2.3529,-2.3586,-2.3682,-2.37,-2.3721,-2.3927,-2.3874,-2.3945,-2.4068,-2.4141,-2.4166,-2.4188,-2.4263,-2.429,-2.3961,-2.3961,-2.3961,0,-2.3468,-2.3564,-2.3517,-2.3596,-2.3622,-2.3539,-2.3637,-2.3653,-2.3689,-2.3709,-2.3653,-2.3771,-2.378,-2.3907,-2.3957,-2.3977,-2.4003,-2.3945,-2.4166,-2.4188,-2.4208,-2.4279,-2.4307,-2.397,-2.3969,-2.3968,-2.3967,0,-2.3702,-2.3769,-2.3845,-2.388,-2.3915,-2.4003,-2.3969,-2.401,-2.3973,-2.396,-2.4061,-2.4068,-2.4117,-2.4144,-2.411,-2.4267,-2.4237,-2.4175,-2.4077,-2.4248,-2.4313,-2.434,-2.3982,-2.3979,-2.3977,-2.3974,0,0,-2.399,-2.3996,-2.4025,-2.404,-2.4054,-2.4106,-2.419,-2.4237,-2.4274,-2.43,-2.437,-2.4452,-2.4394,-2.4419,-2.4385,-2.445,-2.4614,-2.438,-2.4379,-2.4424,-2.4788,-2.4836,-2.4868,-2.4577,-2.4582,-2.4586,-2.4787,0,-2.419,-2.4334,-2.4292,-2.4437,-2.4499,-2.442,-2.4493,-2.451,-2.4499,-2.455,-2.4538,-2.4597,-2.4516,-2.4531,-2.4591,-2.4581,-2.4686,-2.4566,-2.4643,-2.4646,-2.4642,-2.4902,-2.4953,-2.5143,-2.4812,-2.4816,-2.4819,0,-2.4443,-2.4478,-2.4629,-2.4632,-2.4656,-2.4723,-2.4763,-2.4812,-2.483,-2.4817,-2.4844,-2.4797,-2.488,-2.478,-2.4894,-2.4813,-2.4841,-2.4841,-2.4847,-2.4855,-2.4745,-2.4919,-2.5202,-2.5232,-2.4859,-2.4856,-2.4853,0,-2.464,-2.4725,-2.4826,-2.4841,-2.4847,-2.4896,-2.49,-2.4912,-2.4943,-2.4978,-2.4997,-2.5041,-2.5066,-2.5102,-2.5068,-2.4998,-2.5187,-2.5084,-2.518,-2.5181,-2.5226,-2.5224,-2.552,-2.5241,-2.5241,-2.524,-2.524,0,-2.4869,-2.4965,-2.4915,-2.4977,-2.5082,-2.5033,-2.5138,-2.5133,-2.5144,-2.5205,-2.5138,-2.5197,-2.5147,-2.5201,-2.5175,-2.5274,-2.5285,-2.5278,-2.527,-2.5285,-2.5287,-2.5305,-2.5292,-2.5248,-2.5246,-2.5245,-2.5243,0,-2.5108,-2.5078,-2.5184,-2.518,-2.5181,-2.5259,-2.5255,-2.5313,-2.5296,-2.5374,-2.5389,-2.5363,-2.5423,-2.5391,-2.5454,-2.5436,-2.5564,-2.5538,-2.5559,-2.5553,-2.5651,-2.5643,-2.5971,-2.6012,-2.5705,-2.5708,-2.571,0,-2.5257,-2.5329,-2.5332,-2.5367,-2.5377,-2.5434,-2.5465,-2.5419,-2.5454,-2.5478,-2.5533,-2.5587,-2.5628,-2.5727,-2.5714,-2.5761,-2.5737,-2.5848,-2.5744,-2.5756,-2.574,-2.5737,-2.5745,-2.5871,-2.5874,-2.5877,-2.5879,0,-2.5525,-2.5507,-2.5553,-2.5595,-2.5633,-2.5664,-2.5689,-2.5722,-2.5676,-2.5718,-2.5778,-2.581,-2.5872,-2.5927,-2.5968,-2.5972,-2.592,-2.5912,-2.5937,-2.5954,-2.5964,-2.5962,-2.5618,-2.5905,-2.5903,-2.5901,-2.5899,-2.5898,-2.5725,-2.5785,-2.5797,-2.5851,-2.5864,-2.5889,-2.5943,-2.5932,-2.5981,-2.6028,-2.5997,-2.6068,-2.6082,-2.6131,-2.6143,-2.6198,-2.6153,-2.6189,-2.6198,-2.6209,-2.6223,-2.5953,-2.6204,-2.6204,-2.6203,-2.6202,-2.6202,0,-2.5991,-2.5994,-2.6044,-2.6081,-2.6123,-2.6067,-2.6091,-2.6131,-2.6194,-2.6211,-2.6252,-2.6321,-2.6373,-2.6364,-2.6411,-2.6457,-2.6434,-2.6471,-2.6469,-2.6471,-2.6259,-2.6233,-2.6489,-2.6489,-2.6489,-2.6489,-2.6489,-2.6489,-2.6135,-2.6233,-2.6216,-2.632,-2.6322,-2.6391,-2.641,-2.6432,-2.6445,-2.6525,-2.6568,-2.656,-2.6567,-2.6614,-2.666,-2.6655,-2.6677,-2.6724,-2.6711,-2.6514,-2.6486,-2.6459,-2.6434,-2.6728,-2.6729,-2.6918,-2.692,-2.6921]},{"header":{"parameterUnit":"m.s-1","parameterCategory":1,"la1":30.2991,"la2":30.254,"lo1":-89.0895,"lo2":-89.0444,"dy":0.0017,"dx":0.0017,"nx":28,"ny":28,"refTime":"2025-11-04T03:00:00:Z","depth":0,"parameterNumber":3,"parameterNumberName":"V-component_of_WINDS"},"data":[0,0,0,0,0,0,0,0,0,0,0,0,0,0,0,0,0,0,0,0,0,0,0,0,0,0,0,0,0,0,0,0,0,0,0,0,0,0,0,0,0,0,0,0,0,0,0,0,0,0,0,0,0,0,0,0,0,0,-3.6087,-3.6088,0,-3.6159,-3.616,-3.6161,-3.6114,-3.6112,-3.6109,-3.6107,-3.6178,-3.6182,-3.6186,0,0,0,0,0,0,0,0,0,0,0,0,0,-3.5903,-3.5907,-3.6087,-3.6088,-3.6089,-3.6159,-3.616,-3.6161,-3.6114,-3.6112,-3.6109,-3.6106,-3.6177,-3.6181,-3.6186,0,0,0,0,0,0,0,0,0,0,0,0,0,-3.598,-3.5908,-3.6087,-3.6074,-3.6073,-3.6159,-3.616,-3.6162,-3.6115,-3.6111,-3.6108,-3.6105,-3.6175,-3.6181,-3.6187,-3.6288,0,0,-3.6205,-3.6207,0,0,0,0,0,0,0,0,-3.5976,-3.5987,-3.6075,-3.6075,-3.6075,-3.6124,-3.6121,-3.6204,-3.6116,-3.6099,-3.6107,-3.6104,-3.6163,-3.6169,-3.619,-3.6292,-3.6295,-3.6205,-3.6209,-3.6211,-3.6213,0,0,0,0,0,0,0,-3.5971,-3.5983,-3.6115,-3.6076,-3.6076,-3.6063,-3.607,-3.6137,-3.6148,-3.61,-3.6097,-3.6106,-3.6162,-3.6184,-3.6191,-3.6296,-3.6205,-3.621,-3.6214,-3.6216,-3.6482,-3.6486,0,0,0,0,0,0,-3.5967,-3.5979,-3.6113,-3.6118,-3.6016,-3.6069,-3.6077,-3.6112,-3.6147,-3.615,-3.6109,-3.6104,-3.6176,-3.6184,-3.6194,-3.6314,-3.6211,-3.6217,-3.622,-3.6479,-3.6483,-3.6487,0,0,0,0,0,0,-3.5963,-3.5979,-3.611,-3.6048,-3.6063,-3.6076,-3.6115,-3.6115,-3.6137,-3.6154,-3.6155,-3.613,-3.6174,-3.6185,-3.6265,-3.6315,-3.6219,-3.6225,-3.6474,-3.648,-3.6485,-3.6555,0,0,0,0,0,0,-3.5958,-3.5978,-3.6018,-3.6049,-3.6067,-3.6182,-3.6118,-3.6118,-3.6148,-3.6142,-3.6174,-3.6177,-3.6172,-3.6256,-3.6271,-3.6322,-3.6229,-3.647,-3.6477,-3.6483,-3.6548,-3.6562,-3.6574,0,0,0,0,0,-3.5952,-3.6034,-3.602,-3.6037,-3.6117,-3.6185,-3.6195,-3.6189,-3.6152,-3.6191,-3.6202,-3.6175,-3.6308,-3.6265,-3.6281,-3.6334,-3.6467,-3.6475,-3.6483,-3.6543,-3.656,-3.6574,0,0,0,0,0,0,-3.6008,-3.6038,-3.6023,-3.6119,-3.615,-3.6177,-3.6226,-3.6208,-3.6249,-3.6241,-3.6231,-3.6239,-3.6322,-3.6336,-3.6288,-3.6433,-3.6381,-3.6393,-3.6421,-3.6438,-3.645,-3.6445,-3.6234,0,0,0,0,0,-3.6032,-3.6086,-3.6109,-3.6191,-3.6207,-3.6214,-3.6244,-3.6237,-3.6268,-3.628,-3.6297,-3.6327,-3.6375,-3.6407,-3.6453,-3.655,-3.6556,-3.6595,-3.6608,-3.6618,-3.6628,-3.6679,-3.6696,-3.6513,-3.6513,-3.6513,0,0,-3.6081,-3.6104,-3.6139,-3.6203,-3.6226,-3.628,-3.6226,-3.6286,-3.6326,-3.6289,-3.6365,-3.6378,-3.6411,-3.65,-3.654,-3.6514,-3.668,-3.6628,-3.6636,-3.6641,-3.6689,-3.6706,-3.6722,-3.6518,-3.6517,-3.6517,0,0,-3.6198,-3.6222,-3.6292,-3.6317,-3.6353,-3.6357,-3.6374,-3.6404,-3.6412,-3.6489,-3.6462,-3.6508,-3.6592,-3.6616,-3.664,-3.6766,-3.6742,-3.678,-3.6847,-3.6897,-3.6912,-3.6925,-3.6968,-3.6984,-3.679,-3.679,-3.6791,0,-3.6255,-3.6337,-3.6331,-3.6393,-3.6421,-3.6392,-3.6462,-3.6485,-3.6534,-3.6554,-3.6524,-3.6628,-3.6648,-3.6742,-3.6772,-3.6793,-3.681,-3.6776,-3.6911,-3.6923,-3.6935,-3.6976,-3.6993,-3.6795,-3.6794,-3.6794,-3.6793,0,-3.6404,-3.6461,-3.6514,-3.6562,-3.6596,-3.6662,-3.6664,-3.6699,-3.6689,-3.6696,-3.6773,-3.6796,-3.6845,-3.6867,-3.6858,-3.6959,-3.6942,-3.6912,-3.6859,-3.6957,-3.6996,-3.7012,-3.6801,-3.6799,-3.6798,-3.6797,0,0,-3.6559,-3.6603,-3.6622,-3.6644,-3.6681,-3.6725,-3.6788,-3.6837,-3.6867,-3.6901,-3.6954,-3.7025,-3.6997,-3.7024,-3.7016,-3.706,-3.7157,-3.7025,-3.7025,-3.7048,-3.7269,-3.729,-3.7309,-3.7142,-3.7145,-3.7147,-3.7265,0,-3.6678,-3.6791,-3.6786,-3.6891,-3.6943,-3.6915,-3.697,-3.6998,-3.7006,-3.705,-3.7058,-3.7108,-3.7069,-3.7084,-3.7127,-3.7136,-3.7201,-3.7128,-3.7189,-3.7191,-3.7181,-3.7329,-3.7353,-3.7463,-3.7281,-3.7283,-3.7285,0,-3.6832,-3.6872,-3.6982,-3.7011,-3.7033,-3.7083,-3.7127,-3.717,-3.72,-3.7203,-3.7232,-3.7217,-3.728,-3.7226,-3.7312,-3.7262,-3.7287,-3.7295,-3.7299,-3.7304,-3.7244,-3.7337,-3.7498,-3.7515,-3.7309,-3.7307,-3.7305,0,-3.6932,-3.7014,-3.709,-3.711,-3.7146,-3.7181,-3.7197,-3.7225,-3.7254,-3.7292,-3.7311,-3.7355,-3.7379,-3.7413,-3.741,-3.7371,-3.7497,-3.7443,-3.7499,-3.7499,-3.7526,-3.7524,-3.7693,-3.7544,-3.7543,-3.7543,-3.7543,0,-3.7065,-3.7133,-3.7136,-3.7183,-3.7258,-3.7251,-3.7325,-3.7338,-3.7362,-3.741,-3.7388,-3.7433,-3.7427,-3.7471,-3.7469,-3.7539,-3.7551,-3.7553,-3.7552,-3.7555,-3.7554,-3.757,-3.7562,-3.7547,-3.7547,-3.7546,-3.7545,0,-3.719,-3.7195,-3.7276,-3.7303,-3.7312,-3.7366,-3.7388,-3.7432,-3.7437,-3.7498,-3.7511,-3.752,-3.7571,-3.7572,-3.763,-3.7628,-3.7714,-3.7704,-3.7704,-3.7702,-3.7758,-3.7752,-3.7942,-3.7966,-3.7802,-3.7804,-3.7805,0,-3.7274,-3.7326,-3.7359,-3.739,-3.7409,-3.7459,-3.7488,-3.7484,-3.7515,-3.7554,-3.7592,-3.7642,-3.7681,-3.7763,-3.7774,-3.7818,-3.7808,-3.7872,-3.7815,-3.7816,-3.7808,-3.7805,-3.7809,-3.7882,-3.7884,-3.7886,-3.7887,0,-3.7423,-3.7422,-3.7467,-3.7512,-3.7549,-3.7584,-3.7617,-3.7643,-3.7641,-3.7678,-3.773,-3.7761,-3.782,-3.7869,-3.7912,-3.7926,-3.7906,-3.7905,-3.792,-3.7923,-3.7921,-3.7922,-3.7734,-3.79,-3.7899,-3.7898,-3.7897,-3.7897,-3.7529,-3.7573,-3.7603,-3.7653,-3.7678,-3.7708,-3.775,-3.7761,-3.7806,-3.7854,-3.7848,-3.7907,-3.7934,-3.7989,-3.8008,-3.8052,-3.803,-3.8052,-3.8058,-3.8063,-3.8069,-3.7915,-3.806,-3.806,-3.8059,-3.8059,-3.8059,0,-3.7675,-3.7693,-3.7739,-3.7786,-3.7825,-3.7804,-3.7838,-3.7872,-3.7924,-3.7952,-3.7991,-3.805,-3.8097,-3.8112,-3.8156,-3.8189,-3.8181,-3.8201,-3.8198,-3.8202,-3.8087,-3.8069,-3.8207,-3.8207,-3.8207,-3.8207,-3.8207,-3.8207,-3.7756,-3.7829,-3.7833,-3.7917,-3.7934,-3.7992,-3.8013,-3.8041,-3.8063,-3.8131,-3.8171,-3.818,-3.8202,-3.8248,-3.829,-3.8292,-3.8309,-3.8333,-3.8332,-3.8225,-3.821,-3.8196,-3.8179,-3.8337,-3.8338,-3.8443,-3.8444,-3.8445]}]]